Tracking 35275 objects as of 8-Sep-2026
HD Live streaming from Space Station
objects crossing your sky now

OPS 0856 DEB

Track OPS 0856 DEB now!
10-day predictions


NORAD ID: 23838
Int'l Code: 1966-077K
Launch date: August 19, 1966
Source: United States (US)
Launch site: AIR FORCE WESTERN TEST RANGE (AFWTR)

Note: This is SATELLITE DEBRIS
Your satellite tracking list
Your tracking list is empty




NASA's NSSDC Master Catalog

Two Line Element Set (TLE):
1 23838U 66077K   09165.53107625 +.00000007 +00000-0 +10000-3 0  9991
2 23838 087.7563 182.8860 1017861 082.4215 288.6825 08.84962651441626
Source of the keplerian elements: AFSPC